TimeCST,TemperatureF,Dew PointF,Humidity,Sea Level PressureIn,VisibilityMPH,Wind Direction,Wind SpeedMPH,Gust SpeedMPH,PrecipitationIn,Events,Conditions,WindDirDegrees,DateUTC
12:54 AM,30.0,26.1,85,30.17,10.0,NNW,6.9,-,N/A,,Clear,330,2013-11-05 06:54:00
1:54 AM,32.0,28.0,85,30.17,10.0,NNW,5.8,-,N/A,,Clear,340,2013-11-05 07:54:00
2:54 AM,32.0,28.0,85,30.16,10.0,North,6.9,-,N/A,,Clear,350,2013-11-05 08:54:00
3:54 AM,32.0,28.9,88,30.14,10.0,North,6.9,-,N/A,,Clear,350,2013-11-05 09:54:00
4:54 AM,33.1,28.9,85,30.15,10.0,North,6.9,-,N/A,,Mostly Cloudy,360,2013-11-05 10:54:00
5:54 AM,35.1,30.9,85,30.14,10.0,North,3.5,-,N/A,,Overcast,360,2013-11-05 11:54:00
6:54 AM,36.0,30.9,82,30.12,10.0,North,4.6,-,N/A,,Overcast,360,2013-11-05 12:54:00
7:54 AM,37.0,32.0,82,30.13,10.0,North,6.9,-,N/A,,Overcast,10,2013-11-05 13:54:00
8:54 AM,39.9,35.1,83,30.11,10.0,North,6.9,-,N/A,,Overcast,10,2013-11-05 14:54:00
9:12 AM,39.2,35.6,87,30.09,7.0,North,5.8,-,0.00,Rain,Light Rain,10,2013-11-05 15:12:00
9:43 AM,41.0,37.4,87,30.06,2.5,NNE,9.2,-,0.02,Rain,Light Rain,30,2013-11-05 15:43:00
9:52 AM,41.0,37.4,87,30.06,3.0,NE,10.4,-,0.03,Rain,Light Rain,40,2013-11-05 15:52:00
9:54 AM,41.0,37.9,89,30.07,3.0,NE,10.4,-,0.03,Rain,Light Rain,40,2013-11-05 15:54:00
10:05 AM,41.0,37.4,87,30.05,2.5,NNE,8.1,-,0.02,Rain,Rain,30,2013-11-05 16:05:00
10:18 AM,41.0,37.4,87,30.06,3.0,North,6.9,-,0.05,Rain,Rain,360,2013-11-05 16:18:00
10:27 AM,41.0,37.4,87,30.06,2.5,NNW,10.4,-,0.07,Rain,Rain,330,2013-11-05 16:27:00
10:41 AM,39.2,37.4,93,30.07,2.5,NNW,12.7,21.9,0.11,Rain,Rain,340,2013-11-05 16:41:00
10:54 AM,39.9,37.9,93,30.08,2.5,North,15.0,-,0.16,Rain,Heavy Rain,350,2013-11-05 16:54:00
11:31 AM,39.2,37.4,93,30.06,2.5,North,17.3,-,0.14,Rain,Rain,360,2013-11-05 17:31:00
11:38 AM,39.2,37.4,93,30.04,4.0,North,18.4,-,0.15,Rain,Rain,360,2013-11-05 17:38:00
11:54 AM,39.9,37.9,93,30.04,5.0,North,17.3,24.2,0.17,Rain,Light Rain,10,2013-11-05 17:54:00
12:44 PM,41.0,37.4,87,29.96,4.0,NNE,16.1,24.2,0.12,Rain,Light Rain,20,2013-11-05 18:44:00
12:54 PM,41.0,37.9,89,29.98,4.0,NNE,16.1,26.5,0.14,Rain,Rain,20,2013-11-05 18:54:00
1:54 PM,39.9,37.9,93,29.94,5.0,NNE,13.8,21.9,0.09,Rain,Light Rain,20,2013-11-05 19:54:00
2:54 PM,39.9,37.0,89,29.91,4.0,North,17.3,25.3,0.06,Rain,Light Rain,10,2013-11-05 20:54:00
3:26 PM,39.2,37.4,93,29.89,2.0,North,18.4,26.5,0.03,Rain,Light Rain,10,2013-11-05 21:26:00
3:38 PM,39.2,37.4,93,29.89,3.0,NNE,17.3,26.5,0.04,Rain,Light Rain,20,2013-11-05 21:38:00
3:45 PM,39.2,37.4,93,29.89,2.5,North,16.1,25.3,0.04,Rain,Light Rain,10,2013-11-05 21:45:00
3:54 PM,39.0,37.0,93,29.91,2.0,NNE,19.6,26.5,0.05,Rain,Light Rain,20,2013-11-05 21:54:00
4:28 PM,37.4,35.6,93,29.90,1.8,North,20.7,27.6,0.08,Rain,Rain,360,2013-11-05 22:28:00
4:32 PM,37.4,35.6,93,29.90,3.0,North,17.3,27.6,0.09,Rain,Rain,360,2013-11-05 22:32:00
4:39 PM,37.4,35.6,93,29.90,5.0,North,21.9,28.8,0.09,Rain,Light Rain,360,2013-11-05 22:39:00
4:54 PM,39.0,36.0,89,29.92,8.0,North,16.1,24.2,0.10,Rain,Light Rain,360,2013-11-05 22:54:00
5:54 PM,37.9,36.0,93,29.93,7.0,North,16.1,26.5,0.02,Rain,Light Rain,360,2013-11-05 23:54:00
6:54 PM,37.0,34.0,89,29.96,10.0,North,17.3,26.5,0.04,Rain,Light Rain,350,2013-11-06 00:54:00
7:54 PM,36.0,33.1,89,29.97,7.0,North,18.4,27.6,0.02,Rain,Light Rain,350,2013-11-06 01:54:00
8:20 PM,35.6,32.0,87,29.96,10.0,NNW,18.4,29.9,0.00,,Overcast,340,2013-11-06 02:20:00
8:54 PM,35.1,32.0,89,29.98,8.0,North,18.4,31.1,0.00,,Overcast,350,2013-11-06 02:54:00
9:54 PM,36.0,32.0,86,30.02,9.0,North,21.9,27.6,N/A,,Overcast,350,2013-11-06 03:54:00
10:54 PM,36.0,33.1,89,30.04,9.0,NNW,17.3,25.3,N/A,,Overcast,340,2013-11-06 04:54:00
11:50 PM,35.6,32.0,87,30.03,4.0,NNW,16.1,25.3,0.01,Rain,Light Rain,340,2013-11-06 05:50:00
11:54 PM,35.1,32.0,89,30.05,4.0,NNW,16.1,26.5,0.01,Rain,Light Rain,340,2013-11-06 05:54:00